Regional Weather Roundup
Issued by NWS

Home | Current Version | Previous Version | Text Only | Print | Product List | Glossary On
Versions: 1 2 3 4 5 6 7 8 9 10 11 12 13 14 15 16 17 18 19 20 21 22 23 24 25 26 27 28 29 30 31 32 33 34 35 36 37 38 39 40 41 42 43 44 45 46 47 48 49 50
000
ASUS45 KSLC 010610
RWRUT

UTAH REGIONAL WEATHER ROUNDUP
NATIONAL WEATHER SERVICE SALT LAKE CITY UT
1200 AM MDT WED JUL 01 2015

UTZ001>011-023>025-010700-

NORTHERN UTAH

CITY           SKY/WX    TMP DP  RH WIND       PRES   REMARKS
BRIGHAM CITY   CLOUDY    83  47  28 SE8       30.10S
HILL AFB       PTCLDY    79  53  40 NE12G24   30.14F
LOGAN          CLEAR     80  50  34 NE6       30.11
OGDEN          LGT RAIN  81  54  39 NE17G29   30.11
PROVO AIRPORT  CLOUDY    81  54  39 CALM      30.17R
SALT LAKE CITY CLOUDY    82  57  42 SW12      30.09  THUNDER
VERNAL         CLOUDY    68  52  56 NW6       30.11
WENDOVER       CLOUDY    82  50  32 N12       30.14R
HEBER CITY     CLOUDY    79  46  31 W3        30.20R
WEST JORDAN    CLEAR     81  55  41 CALM      30.15R

$$

UTZ012>022-026-027-010700-

SOUTHERN/CENTRAL UTAH

CITY           SKY/WX    TMP DP  RH WIND       PRES   REMARKS
BLANDING       CLOUDY    76  43  30 N9        30.18S
BRYCE CANYON   MOCLDY    59  47  64 W6        30.35
CEDAR CITY     PTCLDY    70  46  42 E5        30.15
DELTA          CLOUDY    78  52  40 NE18G26   30.10F
HANKSVILLE     MOCLDY    84  46  26 CALM      30.03S
MILFORD        PTCLDY    80  46  30 N10       30.11
MOAB/CYNLANDS  CLEAR     82  42  24 NW6       30.00
PRICE          CLOUDY    76  46  34 NW13      30.17
ST GEORGE      CLOUDY    91  43  18 CALM      29.89R
KANAB          PTCLDY    75  48  38 N3        30.12F

$$

REGIONAL REPORTS     COLORADO/ARIZONA

CITY           SKY/WX    TMP DP  RH WIND       PRES   REMARKS
CRAIG, CO      PTCLDY    60  49  66 CALM      30.20
GRAND JUNCTION PTCLDY    76  43  30 NE3       30.04
RIFLE          PTCLDY    72  44  36 SE10      30.12
MONTROSE       MOCLDY    75  47  36 E8        30.14
CORTEZ         CLEAR     69  51  52 CALM      30.11
PAGE, AZ       CLEAR     90  41  18 W5        29.98
GRAND CANYON   CLOUDY    63  60  90 NE3       30.23
KINGMAN        CLOUDY    89  55  31 SW12      29.95
FLAGSTAFF      PTCLDY    64  57  78 SW7       30.26F

$$

REGIONAL REPORTS    NEVADA/IDAHO/WYOMING

CITY           SKY/WX    TMP DP  RH WIND       PRES   REMARKS
LAS VEGAS, NV  CLOUDY   104  45  13 SW12      29.74S HX 100
ELY            MOCLDY    65  51  60 S3        30.28
ELKO           CLOUDY    76  54  46 NE9       30.19R
POCATELLO, ID  PTCLDY    76  64  66 SW7       30.06
BURLEY         CLOUDY    77  55  46 S22G32    30.03
EVANSTON, WY   MOCLDY    72  47  40 W7        30.31
ROCK SPRINGS   PTCLDY    63  53  70 E7        30.24
KEMMERER       CLOUDY    68  48  49 NW7       30.30S

$$


USA.gov is the U.S. government's official web portal to all federal, state and local government web resources and services.